Location: Unspecified
(0.0000°N, 0.0000°E)
Time: 11:52:24
(UTC+00:00)

S-56A Canister/Altair - Pass Details

Date: 03 June 2024
Orbit: 632 x 2486 km, 38.9° (Epoch: 11 June)

Event Time Altitude Azimuth Distance (km) Brightness Sun altitude
Rises 02:30:13 0° 276° (W) 5,798 - -46.8°
Reaches altitude 10° 02:35:58 10° 294° (WNW) 5,003 - -45.6°
Exits shadow 02:41:02 16° 314° (NW) 4,595 11.3 -44.5°
Maximum altitude 02:44:32 18° 330° (NNW) 4,517 11.4 -43.8°
Drops below altitude 10° 02:53:15 10° 7° (N) 5,050 12.0 -41.9°
Sets 02:59:15 0° 25° (NNE) 5,868 12.6 -40.6°
